sat.trackr.live / text

‹ back to catalog

STARLINK-3714

NORAD 52094 · 2022-029G

PAYLOAD ACTIVE UNKNOWN

§ Identity

Operator
Country
US
Launch date
2022-03-19
Launch site
AFETR
Launch vehicle
Mass (kg)
RCS (m²)

Purposes: comms

External: N2YO · Heavens-Above · Gunter

§ Orbital elements

Epoch: 2026-05-25T04:25:19.332192Z

Period
95.44 min
Inclination
53.2119°
Eccentricity
0.0001524
Mean motion
15.08832848 rev/d
Perigee alt
538.7 km
Apogee alt
540.8 km
Semi-major
6,917.9 km
B*
5.9974e-5
RAAN
105.7238°
Arg perigee
89.4796°
Mean anomaly
270.6370°
Rev number
23,220

§ Raw data

STARLINK-37141 52094U 22029G   26145.18425153  .00000666  00000+0  59974-4 0  99972 52094  53.2119 105.7238 0001524  89.4796 270.6370 15.08832848232205

JSON: /api/v1/satellites/52094 · /tle

For live sub-satellite position, see the globe view (requires WebGL).

§ Visibility from observer

Set your observer location to see the next 7 days of passes ≥ 10°. The values pass through the URL so the page stays shareable.

No JS? Fill the form by hand. The geolocation button needs JavaScript.